Location: Terschelling
(53.4100°N, 5.3500°E)
Time: 12:15:13
(UTC+01:00)

NOAA 19 - Visible Passes

Search period start: 30 November 2023 00:00
Search period end: 10 December 2023 00:00
Orbit: 839 x 860 km, 99.1° (Epoch: 30 November)

Date Brightness Start Highest point End Pass type
(mag) Time Alt. Az. Time Alt. Az. Time Alt. Az.
30 Nov 7.1 19:19:08 15° N 19:19:08 15° N 19:20:21 10° N visible
30 Nov 7.7 21:01:06 13° NNW 21:01:06 13° NNW 21:01:41 10° NNW visible
01 Dec 7.1 19:06:51 14° NNE 19:06:51 14° NNE 19:07:59 10° N visible
01 Dec 7.6 20:48:50 14° NNW 20:48:50 14° NNW 20:49:30 10° NNW visible
02 Dec 7.2 18:54:34 13° NNE 18:54:34 13° NNE 18:55:34 10° N visible
02 Dec 7.5 20:36:33 14° NNW 20:36:33 14° NNW 20:37:18 10° NNW visible
03 Dec 7.2 18:42:17 12° NNE 18:42:17 12° NNE 18:43:05 10° NNE visible
03 Dec 7.5 20:24:16 15° N 20:24:16 15° N 20:25:04 10° NNW visible
04 Dec 7.2 18:30:00 11° NNE 18:30:00 11° NNE 18:30:30 10° NNE visible
04 Dec 7.4 20:11:58 15° N 20:11:58 15° N 20:12:50 10° N visible
05 Dec 7.3 19:59:41 15° N 19:59:41 15° N 20:00:34 10° N visible
06 Dec 7.3 19:47:23 14° N 19:47:23 14° N 19:48:16 10° N visible
07 Dec 7.3 19:35:05 14° N 19:35:05 14° N 19:35:57 10° N visible
07 Dec 8.0 21:17:03 10° NNW 21:17:03 10° NNW 21:17:03 10° NNW visible
08 Dec 7.3 19:22:46 14° N 19:22:46 14° N 19:23:37 10° N visible
08 Dec 7.9 21:04:45 11° NNW 21:04:45 11° NNW 21:04:54 10° NNW visible
09 Dec 7.2 19:10:28 13° N 19:10:28 13° N 19:11:15 10° N visible
09 Dec 7.8 20:52:26 12° NNW 20:52:26 12° NNW 20:52:43 10° NNW visible
